Total_Precipitation_Accumulation
0.12 0.26 0.47 0.85 0.82 0.51 0.39 0.22 0.11 0.06 0.04 0.07 0.02 0.03 0.01 0.00 0.00 0.00 0.04 0.04 0.07 0.02 0.00 0.00 0.01 0.02 0.02 0.02 0.04 0.04 0.02 0.02 0.02
0.25 0.35 0.60 0.64 0.86 0.71 0.37 0.19 0.15 0.06 0.05 0.10 0.06 0.03 0.00 0.00 0.00 0.01 0.03 0.03 0.03 0.01 0.01 0.02 0.03 0.03 0.02 0.02 0.02 0.02 0.03 0.02 0.01
0.69 0.63 0.50 0.43 0.59 0.86 0.70 0.42 0.28 0.12 0.11 0.08 0.04 0.01 0.00 0.01 0.01 0.02 0.03 0.04 0.02 0.01 0.03 0.03 0.03 0.01 0.00 0.00 0.01 0.02 0.01 0.01 0.01
0.84 0.73 0.50 0.36 0.44 0.69 0.91 0.90 0.53 0.18 0.09 0.05 0.02 0.00 0.00 0.01 0.03 0.03 0.03 0.11 0.03 0.02 0.03 0.03 0.01 0.00 0.01 0.01 0.01 0.01 0.01 0.00 0.00
1.35 1.27 0.82 0.53 0.46 0.54 0.70 0.74 0.49 0.34 0.17 0.11 0.07 0.06 0.04 0.03 0.07 0.04 0.12 0.23 0.10 0.07 0.05 0.04 0.03 0.02 0.02 0.02 0.02 0.01 0.01 0.01 0.02
1.00 1.95 1.53 1.14 0.81 0.72 0.67 0.55 0.55 0.65 0.53 0.34 0.19 0.04 0.05 0.09 0.06 0.03 0.35 0.33 0.19 0.19 0.15 0.07 0.04 0.03 0.03 0.03 0.04 0.05 0.05 0.03 0.01
0.17 1.64 2.75 2.78 2.09 1.72 1.22 0.86 0.63 0.60 0.39 0.39 0.26 0.06 0.04 0.08 0.09 0.07 0.51 0.37 0.29 0.22 0.13 0.10 0.08 0.07 0.07 0.11 0.12 0.11 0.09 0.09 0.07
0.02 0.88 2.16 3.55 4.94 3.55 2.10 1.00 0.53 0.34 0.24 0.28 0.36 0.12 0.09 0.08 0.10 0.21 0.68 0.45 0.47 0.30 0.17 0.13 0.16 0.16 0.18 0.20 0.19 0.15 0.12 0.09 0.07
0.01 0.16 0.83 1.68 2.95 3.31 2.08 0.94 0.51 0.28 0.31 0.36 0.38 0.24 0.12 0.17 0.10 0.28 0.91 0.68 0.53 0.42 0.27 0.22 0.20 0.18 0.16 0.16 0.13 0.12 0.11 0.10 0.04
0.00 0.03 0.13 0.38 0.79 1.18 1.64 1.29 0.89 0.70 0.53 0.44 0.49 0.32 0.18 0.19 0.26 0.33 0.80 0.86 0.57 0.47 0.36 0.32 0.27 0.20 0.16 0.13 0.09 0.09 0.09 0.07 0.08
0.00 0.01 0.03 0.07 0.19 0.27 0.54 0.63 0.69 0.83 0.71 0.57 0.50 0.36 0.37 0.26 0.26 0.28 0.57 0.91 0.65 0.48 0.44 0.32 0.24 0.18 0.14 0.11 0.09 0.07 0.07 0.06 0.04
0.00 0.01 0.01 0.02 0.04 0.07 0.12 0.13 0.16 0.25 0.49 0.54 0.49 0.33 0.26 0.35 0.32 0.22 0.43 0.86 0.77 0.59 0.43 0.34 0.21 0.14 0.11 0.09 0.06 0.04 0.02 0.02 0.01
0.02 0.04 0.02 0.05 0.03 0.02 0.06 0.12 0.09 0.09 0.11 0.26 0.41 0.40 0.24 0.22 0.32 0.20 0.39 0.74 0.74 0.65 0.40 0.36 0.24 0.10 0.06 0.05 0.03 0.02 0.01 0.01 0.00
0.05 0.04 0.03 0.04 0.03 0.01 0.03 0.08 0.19 0.22 0.17 0.15 0.17 0.25 0.31 0.31 0.28 0.24 0.23 0.25 0.44 0.61 0.41 0.31 0.20 0.08 0.03 0.03 0.02 0.02 0.02 0.01 0.00
0.14 0.05 0.05 0.03 0.02 0.01 0.02 0.06 0.14 0.26 0.39 0.44 0.30 0.17 0.18 0.31 0.48 0.34 0.28 0.17 0.18 0.27 0.36 0.28 0.15 0.13 0.03 0.02 0.01 0.01 0.01 0.00 0.00
0.23 0.14 0.05 0.04 0.04 0.03 0.02 0.04 0.11 0.24 0.23 0.39 0.71 0.60 0.31 0.25 0.39 0.55 0.38 0.28 0.24 0.20 0.21 0.22 0.10 0.13 0.04 0.01 0.01 0.00 0.00 0.00 0.00
0.52 0.31 0.14 0.06 0.04 0.05 0.04 0.02 0.05 0.10 0.22 0.24 0.36 0.75 0.72 0.34 0.28 0.49 0.54 0.38 0.30 0.23 0.28 0.21 0.09 0.04 0.03 0.01 0.00 0.00 0.00 0.00 0.00
1.22 1.01 0.57 0.28 0.13 0.07 0.06 0.06 0.04 0.04 0.05 0.10 0.21 0.33 0.50 0.54 0.33 0.27 0.32 0.39 0.38 0.30 0.18 0.14 0.09 0.05 0.02 0.00 0.00 0.00 0.00 0.00 0.00
1.03 1.40 1.46 0.90 0.53 0.31 0.13 0.12 0.10 0.08 0.07 0.04 0.02 0.04 0.09 0.20 0.36 0.37 0.23 0.16 0.31 0.38 0.27 0.15 0.06 0.02 0.02 0.01 0.00 0.00 0.00 0.00 0.00
0.99 1.20 1.35 1.46 1.27 0.85 0.53 0.29 0.26 0.19 0.11 0.06 0.04 0.02 0.01 0.02 0.11 0.23 0.30 0.22 0.16 0.21 0.31 0.24 0.13 0.05 0.01 0.01 0.00 0.00 0.00 0.00 0.00